DAL633 KSEA-KDEN

Flight info

Callsign DAL633
Flight time 2h 5m
Altitude 35000
Route MONTN2 SEA DCT NORMY J90 MWH DCT KU87M DCT IDA DCT MJANE FLATI5
Aircraft A320/M-V/N

Departure

Time 2026-05-08 04:42
Airport Seattle–Tacoma International Airport (KSEA)

Arrival

Time 2026-05-08 06:47
Airport Denver International Airport (KDEN)
Time Latitude Longitude Altitude Speed Heading
2026-05-08 04:07 47.44152 -122.30130 392 ft 0 kts 39°
2026-05-08 04:31 47.44147 -122.30136 392 ft 4 kts 40°
2026-05-08 04:31 47.44127 -122.30163 391 ft 4 kts 45°
2026-05-08 04:32 47.44108 -122.30192 390 ft 4 kts 48°
2026-05-08 04:32 47.44090 -122.30221 390 ft 4 kts 42°
2026-05-08 04:32 47.44069 -122.30240 389 ft 3 kts
2026-05-08 04:32 47.44050 -122.30238 389 ft 4 kts 306°
2026-05-08 04:33 47.44048 -122.30211 389 ft 4 kts 257°
2026-05-08 04:33 47.44052 -122.30172 390 ft 4 kts 270°
2026-05-08 04:33 47.44052 -122.30154 390 ft 0 kts 277°
2026-05-08 04:35 47.44053 -122.30170 390 ft 8 kts 275°
2026-05-08 04:35 47.44007 -122.30311 387 ft 20 kts 244°
2026-05-08 04:36 47.43993 -122.30519 384 ft 21 kts 270°
2026-05-08 04:36 47.44071 -122.30636 385 ft 18 kts 359°
2026-05-08 04:36 47.44187 -122.30638 388 ft 16 kts 359°
2026-05-08 04:36 47.44287 -122.30637 391 ft 14 kts
2026-05-08 04:37 47.44395 -122.30630 394 ft 17 kts
2026-05-08 04:37 47.44523 -122.30627 395 ft 20 kts
2026-05-08 04:37 47.44655 -122.30630 401 ft 18 kts
2026-05-08 04:37 47.44768 -122.30628 404 ft 15 kts
2026-05-08 04:38 47.44868 -122.30629 407 ft 16 kts 359°
2026-05-08 04:38 47.44989 -122.30629 411 ft 17 kts
2026-05-08 04:38 47.45125 -122.30627 412 ft 24 kts
2026-05-08 04:38 47.45315 -122.30625 418 ft 30 kts
2026-05-08 04:39 47.45511 -122.30624 422 ft 27 kts
2026-05-08 04:39 47.45689 -122.30623 434 ft 25 kts
2026-05-08 04:39 47.45860 -122.30621 433 ft 24 kts
2026-05-08 04:39 47.46025 -122.30619 432 ft 23 kts
2026-05-08 04:40 47.46189 -122.30617 435 ft 24 kts
2026-05-08 04:40 47.46343 -122.30619 437 ft 18 kts 347°
2026-05-08 04:40 47.46363 -122.30759 438 ft 15 kts 228°
2026-05-08 04:40 47.46265 -122.30778 433 ft 14 kts 179°
2026-05-08 04:41 47.46102 -122.30779 425 ft 50 kts 180°
2026-05-08 04:41 47.45509 -122.30784 421 ft 117 kts 180°
2026-05-08 04:41 47.44503 -122.30793 397 ft 170 kts 180°
2026-05-08 04:41 47.43240 -122.30818 713 ft 185 kts 180°
2026-05-08 04:42 47.41933 -122.30889 1323 ft 191 kts 182°
2026-05-08 04:42 47.40538 -122.31011 1692 ft 215 kts 184°
2026-05-08 04:42 47.38957 -122.31093 1969 ft 239 kts 180°
2026-05-08 04:42 47.37232 -122.31095 2460 ft 254 kts 180°
2026-05-08 04:43 47.35445 -122.31071 3220 ft 259 kts 177°
2026-05-08 04:43 47.33724 -122.30313 3961 ft 265 kts 145°
2026-05-08 04:43 47.32569 -122.28211 4688 ft 271 kts 110°
2026-05-08 04:43 47.32413 -122.25457 5393 ft 276 kts 76°
2026-05-08 04:44 47.33330 -122.22989 6077 ft 280 kts 42°
2026-05-08 04:44 47.34961 -122.21417 6752 ft 283 kts 22°
2026-05-08 04:44 47.36688 -122.20003 7424 ft 288 kts 41°
2026-05-08 04:44 47.37798 -122.17546 8091 ft 292 kts 71°
2026-05-08 04:45 47.38251 -122.14617 8804 ft 295 kts 83°
2026-05-08 04:45 47.38442 -122.11589 9518 ft 298 kts 86°
2026-05-08 04:45 47.38594 -122.08525 10173 ft 303 kts 85°
2026-05-08 04:45 47.38806 -122.05307 10317 ft 327 kts 83°
2026-05-08 04:46 47.39116 -122.01873 10520 ft 346 kts 81°
2026-05-08 04:46 47.39511 -121.98331 11021 ft 353 kts 80°
2026-05-08 04:46 47.39963 -121.94744 11608 ft 358 kts 79°
2026-05-08 04:46 47.40449 -121.91113 12207 ft 363 kts 79°
2026-05-08 04:47 47.40947 -121.87447 12820 ft 367 kts 78°
2026-05-08 04:47 47.41445 -121.83730 13440 ft 371 kts 79°
2026-05-08 04:47 47.41938 -121.79978 14038 ft 374 kts 79°
2026-05-08 04:47 47.42432 -121.76182 14566 ft 378 kts 79°
2026-05-08 04:48 47.42871 -121.72344 15101 ft 381 kts 85°
2026-05-08 04:48 47.42920 -121.68417 15637 ft 384 kts 91°
2026-05-08 04:48 47.42868 -121.64452 16147 ft 388 kts 91°
2026-05-08 04:48 47.42814 -121.60455 16672 ft 391 kts 91°
2026-05-08 04:49 47.42760 -121.56476 17194 ft 394 kts 91°
2026-05-08 04:49 47.42701 -121.52414 17708 ft 398 kts 91°
2026-05-08 04:49 47.42639 -121.48320 18229 ft 401 kts 92°
2026-05-08 04:49 47.42578 -121.44190 18750 ft 403 kts 92°
2026-05-08 04:50 47.42516 -121.40043 19175 ft 406 kts 92°
2026-05-08 04:50 47.42450 -121.35863 19610 ft 409 kts 92°
2026-05-08 04:50 47.42382 -121.31643 20043 ft 413 kts 92°
2026-05-08 04:50 47.42313 -121.27380 20464 ft 417 kts 91°
2026-05-08 04:51 47.42244 -121.23087 20900 ft 420 kts 92°
2026-05-08 04:51 47.42173 -121.18759 21329 ft 424 kts 92°
2026-05-08 04:51 47.42099 -121.14392 21742 ft 427 kts 91°
2026-05-08 04:51 47.42024 -121.09991 22103 ft 430 kts 91°
2026-05-08 04:52 47.41944 -121.05563 22519 ft 434 kts 91°
2026-05-08 04:52 47.41858 -121.01102 22921 ft 437 kts 91°
2026-05-08 04:52 47.41769 -120.96597 23357 ft 439 kts 91°
2026-05-08 04:52 47.41679 -120.92076 23743 ft 441 kts 91°
2026-05-08 04:53 47.41590 -120.87544 24030 ft 444 kts 91°
2026-05-08 04:53 47.41499 -120.82968 24344 ft 447 kts 91°
2026-05-08 04:53 47.41408 -120.78370 24632 ft 449 kts 91°
2026-05-08 04:53 47.41315 -120.73742 24920 ft 452 kts 91°
2026-05-08 04:54 47.41217 -120.69103 25186 ft 454 kts 91°
2026-05-08 04:54 47.41114 -120.64426 25466 ft 457 kts 91°
2026-05-08 04:54 47.41007 -120.59729 25761 ft 459 kts 91°
2026-05-08 04:54 47.40899 -120.55006 26027 ft 461 kts 91°
2026-05-08 04:55 47.40827 -120.51862 26207 ft 463 kts 91°
2026-05-08 04:55 47.40717 -120.47107 26497 ft 464 kts 91°
2026-05-08 04:55 47.40530 -120.42355 26800 ft 466 kts 97°
2026-05-08 04:55 47.39889 -120.37649 27053 ft 468 kts 104°
2026-05-08 04:56 47.39076 -120.32982 27309 ft 470 kts 104°
2026-05-08 04:56 47.38261 -120.28290 27550 ft 473 kts 104°
2026-05-08 04:56 47.37444 -120.23580 27788 ft 475 kts 104°
2026-05-08 04:56 47.36624 -120.18846 28026 ft 478 kts 104°
2026-05-08 04:57 47.35798 -120.14082 28261 ft 480 kts 104°
2026-05-08 04:57 47.34963 -120.09298 28493 ft 483 kts 104°
2026-05-08 04:57 47.34124 -120.04504 28723 ft 485 kts 104°
2026-05-08 04:57 47.33273 -119.99671 28921 ft 487 kts 104°
2026-05-08 04:58 47.32419 -119.94835 29147 ft 489 kts 104°
2026-05-08 04:58 47.31559 -119.89968 29363 ft 491 kts 104°
2026-05-08 04:58 47.30696 -119.85091 29574 ft 494 kts 104°
2026-05-08 04:58 47.29829 -119.80183 29770 ft 495 kts 104°
2026-05-08 04:59 47.28957 -119.75270 29971 ft 497 kts 104°
2026-05-08 04:59 47.28077 -119.70333 30185 ft 498 kts 104°
2026-05-08 04:59 47.27196 -119.65408 30431 ft 498 kts 104°
2026-05-08 04:59 47.26311 -119.60482 30664 ft 497 kts 104°
2026-05-08 05:00 47.25422 -119.55559 30898 ft 497 kts 104°
2026-05-08 05:00 47.24531 -119.50649 31130 ft 497 kts 104°
2026-05-08 05:00 47.23640 -119.45731 31358 ft 497 kts 104°
2026-05-08 05:00 47.22747 -119.40818 31584 ft 497 kts 104°
2026-05-08 05:01 47.21834 -119.35909 31829 ft 497 kts 107°
2026-05-08 05:01 47.20571 -119.31195 32082 ft 497 kts 116°
2026-05-08 05:01 47.18828 -119.26787 32260 ft 498 kts 125°
2026-05-08 05:01 47.16868 -119.22587 32458 ft 499 kts 125°
2026-05-08 05:02 47.14909 -119.18385 32665 ft 499 kts 125°
2026-05-08 05:02 47.12949 -119.14178 32902 ft 499 kts 125°
2026-05-08 05:02 47.10993 -119.09978 33126 ft 499 kts 125°
2026-05-08 05:02 47.09032 -119.05776 33341 ft 499 kts 125°
2026-05-08 05:03 47.07067 -119.01577 33565 ft 499 kts 125°
2026-05-08 05:03 47.05105 -118.97394 33771 ft 499 kts 125°
2026-05-08 05:03 47.03136 -118.93195 33991 ft 499 kts 125°
2026-05-08 05:03 47.01167 -118.89000 34186 ft 499 kts 125°
2026-05-08 05:04 46.99196 -118.84813 34386 ft 499 kts 125°
2026-05-08 05:04 46.97230 -118.80642 34581 ft 498 kts 125°
2026-05-08 05:04 46.95262 -118.76470 34771 ft 498 kts 125°
2026-05-08 05:04 46.93294 -118.72304 34927 ft 498 kts 125°
2026-05-08 05:05 46.89369 -118.64011 34967 ft 494 kts 124°
2026-05-08 05:05 46.85461 -118.55776 34967 ft 493 kts 125°
2026-05-08 05:06 46.81573 -118.47613 34971 ft 493 kts 125°
2026-05-08 05:06 46.77624 -118.39345 34973 ft 493 kts 124°
2026-05-08 05:07 46.73692 -118.31148 34989 ft 493 kts 124°
2026-05-08 05:07 46.69782 -118.23024 34981 ft 494 kts 125°
2026-05-08 05:08 46.65829 -118.14833 34986 ft 494 kts 125°
2026-05-08 05:08 46.61873 -118.06662 34981 ft 494 kts 124°
2026-05-08 05:09 46.57915 -117.98509 34993 ft 494 kts 124°
2026-05-08 05:09 46.53954 -117.90353 35005 ft 494 kts 124°
2026-05-08 05:10 46.48024 -117.78203 35020 ft 493 kts 125°
2026-05-08 05:11 46.44025 -117.70044 35023 ft 493 kts 125°
2026-05-08 05:11 46.40046 -117.61948 35043 ft 493 kts 125°
2026-05-08 05:12 46.36067 -117.53872 35047 ft 493 kts 125°
2026-05-08 05:12 46.32077 -117.45797 35045 ft 493 kts 125°
2026-05-08 05:13 46.28087 -117.37740 35046 ft 493 kts 124°
2026-05-08 05:13 46.24088 -117.29686 35035 ft 493 kts 124°
2026-05-08 05:14 46.20077 -117.21645 35032 ft 494 kts 125°
2026-05-08 05:14 46.16050 -117.13607 35016 ft 494 kts 125°
2026-05-08 05:15 46.12027 -117.05580 35021 ft 494 kts 125°
2026-05-08 05:15 46.07977 -116.97516 35022 ft 493 kts 125°
2026-05-08 05:16 46.03966 -116.89557 35023 ft 494 kts 125°
2026-05-08 05:16 45.99898 -116.81515 35030 ft 494 kts 125°
2026-05-08 05:17 45.95857 -116.73562 35038 ft 492 kts 125°
2026-05-08 05:17 45.91808 -116.65602 35026 ft 493 kts 125°
2026-05-08 05:18 45.87757 -116.57662 35035 ft 492 kts 125°
2026-05-08 05:18 45.83716 -116.49750 35061 ft 491 kts 125°
2026-05-08 05:19 45.79669 -116.41852 35050 ft 491 kts 126°
2026-05-08 05:19 45.75614 -116.33974 35044 ft 491 kts 126°
2026-05-08 05:20 45.71561 -116.26114 35039 ft 491 kts 126°
2026-05-08 05:20 45.67499 -116.18272 35038 ft 490 kts 126°
2026-05-08 05:21 45.63444 -116.10448 35024 ft 490 kts 126°
2026-05-08 05:21 45.59382 -116.02631 35019 ft 490 kts 126°
2026-05-08 05:22 45.55311 -115.94828 35014 ft 490 kts 126°
2026-05-08 05:22 45.51238 -115.87041 35009 ft 490 kts 126°
2026-05-08 05:23 45.47156 -115.79260 35002 ft 490 kts 126°
2026-05-08 05:23 45.43074 -115.71483 35010 ft 491 kts 126°
2026-05-08 05:24 45.38969 -115.63700 35004 ft 492 kts 126°
2026-05-08 05:24 45.34858 -115.55926 34996 ft 492 kts 126°
2026-05-08 05:25 45.30743 -115.48160 34990 ft 492 kts 126°
2026-05-08 05:25 45.26610 -115.40382 34987 ft 494 kts 126°
2026-05-08 05:26 45.22468 -115.32610 34992 ft 494 kts 126°
2026-05-08 05:26 45.18291 -115.24800 34973 ft 494 kts 126°
2026-05-08 05:27 45.14157 -115.17103 34976 ft 494 kts 126°
2026-05-08 05:27 45.09989 -115.09366 34962 ft 494 kts 126°
2026-05-08 05:28 45.05819 -115.01625 34954 ft 495 kts 126°
2026-05-08 05:28 45.01652 -114.93889 34960 ft 495 kts 126°
2026-05-08 05:29 44.97465 -114.86162 34934 ft 495 kts 126°
2026-05-08 05:29 44.93273 -114.78450 34931 ft 496 kts 126°
2026-05-08 05:30 44.89069 -114.70731 34944 ft 497 kts 126°
2026-05-08 05:30 44.84845 -114.63003 34925 ft 497 kts 126°
2026-05-08 05:31 44.80619 -114.55290 34905 ft 498 kts 126°
2026-05-08 05:31 44.76381 -114.47571 34898 ft 499 kts 126°
2026-05-08 05:32 44.72130 -114.39854 34909 ft 499 kts 126°
2026-05-08 05:32 44.67846 -114.32098 35007 ft 499 kts 126°
2026-05-08 05:33 44.63587 -114.24412 35041 ft 499 kts 126°
2026-05-08 05:33 44.60041 -114.18026 35053 ft 498 kts 126°
2026-05-08 05:34 44.55083 -114.09113 35052 ft 499 kts 126°
2026-05-08 05:34 44.51506 -114.02697 35030 ft 499 kts 126°
2026-05-08 05:35 44.47329 -113.94952 34994 ft 498 kts 123°
2026-05-08 05:35 44.43438 -113.86948 34979 ft 497 kts 120°
2026-05-08 05:36 44.39610 -113.78879 34936 ft 498 kts 121°
2026-05-08 05:36 44.35708 -113.70870 34921 ft 498 kts 122°
2026-05-08 05:37 44.31739 -113.62923 34935 ft 499 kts 122°
2026-05-08 05:37 44.27768 -113.54978 34939 ft 499 kts 122°
2026-05-08 05:38 44.23806 -113.47031 34934 ft 499 kts 122°
2026-05-08 05:38 44.19845 -113.39101 34934 ft 499 kts 122°
2026-05-08 05:39 44.15870 -113.31179 34934 ft 498 kts 122°
2026-05-08 05:39 44.11912 -113.23300 34927 ft 498 kts 122°
2026-05-08 05:40 44.07931 -113.15392 34933 ft 499 kts 121°
2026-05-08 05:40 44.03942 -113.07502 34926 ft 499 kts 121°
2026-05-08 05:41 43.99948 -112.99621 34911 ft 499 kts 122°
2026-05-08 05:41 43.95970 -112.91797 34887 ft 499 kts 121°
2026-05-08 05:42 43.91928 -112.83855 34889 ft 501 kts 121°
2026-05-08 05:42 43.87928 -112.76014 34893 ft 502 kts 121°
2026-05-08 05:43 43.83864 -112.68076 34902 ft 502 kts 121°
2026-05-08 05:43 43.79815 -112.60189 34903 ft 502 kts 121°
2026-05-08 05:44 43.75765 -112.52328 34907 ft 502 kts 121°
2026-05-08 05:44 43.71704 -112.44472 34933 ft 502 kts 121°
2026-05-08 05:45 43.67638 -112.36616 34925 ft 502 kts 121°
2026-05-08 05:45 43.63570 -112.28761 34926 ft 503 kts 121°
2026-05-08 05:46 43.59492 -112.20922 34931 ft 502 kts 121°
2026-05-08 05:46 43.55414 -112.13107 35015 ft 502 kts 121°
2026-05-08 05:47 43.51330 -112.05306 35022 ft 502 kts 122°
2026-05-08 05:47 43.47179 -111.97576 35025 ft 502 kts 123°
2026-05-08 05:48 43.42978 -111.89900 35018 ft 502 kts 123°
2026-05-08 05:48 43.38776 -111.82229 34996 ft 502 kts 123°
2026-05-08 05:49 43.34589 -111.74553 34983 ft 502 kts 123°
2026-05-08 05:49 43.30403 -111.66885 34975 ft 502 kts 123°
2026-05-08 05:50 43.26205 -111.59226 34983 ft 502 kts 123°
2026-05-08 05:50 43.22002 -111.51582 34996 ft 502 kts 123°
2026-05-08 05:51 43.17798 -111.43957 34997 ft 502 kts 123°
2026-05-08 05:51 43.13579 -111.36337 35012 ft 501 kts 123°
2026-05-08 05:52 43.09369 -111.28743 35014 ft 501 kts 123°
2026-05-08 05:52 43.05158 -111.21159 35008 ft 501 kts 123°
2026-05-08 05:53 43.00941 -111.13579 35030 ft 501 kts 123°
2026-05-08 05:53 42.96722 -111.06005 35011 ft 501 kts 123°
2026-05-08 05:54 42.92494 -110.98464 35011 ft 501 kts 123°
2026-05-08 05:54 42.88249 -110.90930 35076 ft 500 kts 123°
2026-05-08 05:55 42.84008 -110.83404 35079 ft 500 kts 123°
2026-05-08 05:55 42.79776 -110.75885 35080 ft 500 kts 123°
2026-05-08 05:56 42.75501 -110.68326 35058 ft 501 kts 123°
2026-05-08 05:56 42.71272 -110.60869 34991 ft 501 kts 123°
2026-05-08 05:57 42.66980 -110.53317 35018 ft 501 kts 123°
2026-05-08 05:57 42.62707 -110.45829 35075 ft 502 kts 123°
2026-05-08 05:58 42.58430 -110.38346 35079 ft 502 kts 123°
2026-05-08 05:58 42.54168 -110.30901 35096 ft 503 kts 123°
2026-05-08 05:59 42.49871 -110.23422 35111 ft 504 kts 123°
2026-05-08 05:59 42.45556 -110.15935 35105 ft 504 kts 123°
2026-05-08 06:00 42.41249 -110.08455 35085 ft 504 kts 123°
2026-05-08 06:00 42.36932 -110.00967 35050 ft 504 kts 123°
2026-05-08 06:01 42.32572 -109.93454 35016 ft 505 kts 123°
2026-05-08 06:01 42.28256 -109.86046 34985 ft 505 kts 123°
2026-05-08 06:02 42.23905 -109.78601 35001 ft 505 kts 123°
2026-05-08 06:02 42.19557 -109.71163 34984 ft 505 kts 123°
2026-05-08 06:03 42.15201 -109.63727 34968 ft 505 kts 123°
2026-05-08 06:03 42.10834 -109.56293 34959 ft 506 kts 123°
2026-05-08 06:04 42.06473 -109.48869 34970 ft 506 kts 123°
2026-05-08 06:04 42.02100 -109.41447 34992 ft 507 kts 124°
2026-05-08 06:05 41.97702 -109.34009 34978 ft 508 kts 124°
2026-05-08 06:05 41.93298 -109.26596 34968 ft 508 kts 124°
2026-05-08 06:06 41.88888 -109.19187 35007 ft 508 kts 124°
2026-05-08 06:06 41.84475 -109.11792 35084 ft 508 kts 124°
2026-05-08 06:07 41.80055 -109.04399 35063 ft 508 kts 124°
2026-05-08 06:07 41.75636 -108.97015 35079 ft 508 kts 124°
2026-05-08 06:08 41.71207 -108.89634 35078 ft 508 kts 124°
2026-05-08 06:08 41.66775 -108.82270 35065 ft 508 kts 124°
2026-05-08 06:09 41.62341 -108.74925 35001 ft 508 kts 124°
2026-05-08 06:09 41.57906 -108.67592 34986 ft 507 kts 124°
2026-05-08 06:10 41.53465 -108.60267 34988 ft 507 kts 124°
2026-05-08 06:10 41.49024 -108.52957 34982 ft 507 kts 124°
2026-05-08 06:11 41.44580 -108.45669 34984 ft 506 kts 124°
2026-05-08 06:11 41.40152 -108.38388 35004 ft 504 kts 121°
2026-05-08 06:12 41.36731 -108.30407 34993 ft 490 kts 104°
2026-05-08 06:12 41.34597 -108.21882 34982 ft 485 kts 100°
2026-05-08 06:13 41.32521 -108.13350 34979 ft 485 kts 100°
2026-05-08 06:13 41.30423 -108.04821 34975 ft 485 kts 101°
2026-05-08 06:14 41.28315 -107.96289 34972 ft 486 kts 101°
2026-05-08 06:14 41.26548 -107.89143 34969 ft 486 kts 101°
2026-05-08 06:15 41.24432 -107.80611 35006 ft 486 kts 101°
2026-05-08 06:15 41.22312 -107.72081 35055 ft 486 kts 101°
2026-05-08 06:16 41.20185 -107.63564 35093 ft 486 kts 101°
2026-05-08 06:16 41.18049 -107.55030 35119 ft 487 kts 101°
2026-05-08 06:17 41.14820 -107.42262 35134 ft 487 kts 101°
2026-05-08 06:17 41.12662 -107.33751 35121 ft 487 kts 101°
2026-05-08 06:18 41.10503 -107.25223 35088 ft 488 kts 101°
2026-05-08 06:18 41.08336 -107.16697 35049 ft 488 kts 101°
2026-05-08 06:19 41.06159 -107.08181 35028 ft 488 kts 101°
2026-05-08 06:19 41.03967 -106.99654 35028 ft 489 kts 102°
2026-05-08 06:20 41.01771 -106.91117 35018 ft 490 kts 102°
2026-05-08 06:20 40.99574 -106.82578 35014 ft 491 kts 102°
2026-05-08 06:21 40.98464 -106.78278 34714 ft 494 kts 102°
2026-05-08 06:21 40.97347 -106.73977 34279 ft 495 kts 102°
2026-05-08 06:21 40.96225 -106.69675 33848 ft 494 kts 102°
2026-05-08 06:21 40.95104 -106.65371 33367 ft 496 kts 102°
2026-05-08 06:22 40.93964 -106.60996 32869 ft 497 kts 102°
2026-05-08 06:22 40.92850 -106.56729 32408 ft 497 kts 102°
2026-05-08 06:22 40.91705 -106.52360 31934 ft 497 kts 102°
2026-05-08 06:22 40.90583 -106.48089 31493 ft 498 kts 103°
2026-05-08 06:23 40.89433 -106.43714 31043 ft 498 kts 103°
2026-05-08 06:23 40.88308 -106.39442 30610 ft 499 kts 103°
2026-05-08 06:23 40.87162 -106.35108 30181 ft 499 kts 103°
2026-05-08 06:23 40.86018 -106.30792 29721 ft 496 kts 105°
2026-05-08 06:24 40.84864 -106.26450 29217 ft 494 kts 106°
2026-05-08 06:24 40.83499 -106.22266 28717 ft 497 kts 111°
2026-05-08 06:24 40.82034 -106.18132 28207 ft 498 kts 111°
2026-05-08 06:24 40.80566 -106.13991 27730 ft 498 kts 112°
2026-05-08 06:25 40.79100 -106.09855 27264 ft 498 kts 112°
2026-05-08 06:25 40.77637 -106.05731 26773 ft 493 kts 112°
2026-05-08 06:25 40.76210 -106.01720 26353 ft 484 kts 112°
2026-05-08 06:25 40.74794 -105.97749 26001 ft 474 kts 113°
2026-05-08 06:26 40.73402 -105.93852 25644 ft 465 kts 114°
2026-05-08 06:26 40.72036 -105.90033 25262 ft 456 kts 114°
2026-05-08 06:26 40.70694 -105.86289 24900 ft 448 kts 114°
2026-05-08 06:26 40.69372 -105.82607 24555 ft 441 kts 114°
2026-05-08 06:27 40.68091 -105.79042 24203 ft 434 kts 114°
2026-05-08 06:27 40.66783 -105.75414 23836 ft 428 kts 114°
2026-05-08 06:27 40.65530 -105.71932 23482 ft 423 kts 114°
2026-05-08 06:27 40.64272 -105.68405 23072 ft 419 kts 114°
2026-05-08 06:28 40.63037 -105.64954 22655 ft 414 kts 114°
2026-05-08 06:28 40.61807 -105.61548 22256 ft 410 kts 115°
2026-05-08 06:28 40.60582 -105.58172 21865 ft 406 kts 115°
2026-05-08 06:28 40.59389 -105.54893 21587 ft 398 kts 115°
2026-05-08 06:29 40.58203 -105.51641 21329 ft 391 kts 115°
2026-05-08 06:29 40.57039 -105.48457 21050 ft 383 kts 115°
2026-05-08 06:29 40.55891 -105.45326 20802 ft 377 kts 115°
2026-05-08 06:29 40.54758 -105.42232 20561 ft 374 kts 115°
2026-05-08 06:30 40.53624 -105.39123 20322 ft 372 kts 115°
2026-05-08 06:30 40.52509 -105.36059 20075 ft 371 kts 115°
2026-05-08 06:30 40.51397 -105.33009 19834 ft 369 kts 115°
2026-05-08 06:30 40.50286 -105.29970 19603 ft 368 kts 115°
2026-05-08 06:31 40.49182 -105.26961 19384 ft 367 kts 115°
2026-05-08 06:31 40.48068 -105.23923 19156 ft 367 kts 115°
2026-05-08 06:31 40.46942 -105.20923 18927 ft 366 kts 120°
2026-05-08 06:31 40.45483 -105.18192 18697 ft 364 kts 133°
2026-05-08 06:32 40.43651 -105.15928 18483 ft 361 kts 145°
2026-05-08 06:32 40.41608 -105.14016 18239 ft 361 kts 147°
2026-05-08 06:32 40.39566 -105.12124 17973 ft 359 kts 147°
2026-05-08 06:32 40.37532 -105.10238 17704 ft 357 kts 147°
2026-05-08 06:33 40.35506 -105.08361 17458 ft 356 kts 147°
2026-05-08 06:33 40.33491 -105.06492 17200 ft 355 kts 147°
2026-05-08 06:33 40.31481 -105.04625 16968 ft 353 kts 147°
2026-05-08 06:33 40.29507 -105.02789 16731 ft 352 kts 147°
2026-05-08 06:34 40.27507 -105.00933 16505 ft 351 kts 147°
2026-05-08 06:34 40.25519 -104.99094 16192 ft 350 kts 147°
2026-05-08 06:34 40.23528 -104.97258 15969 ft 349 kts 147°
2026-05-08 06:34 40.21548 -104.95433 15737 ft 348 kts 147°
2026-05-08 06:35 40.19576 -104.93614 15511 ft 347 kts 147°
2026-05-08 06:35 40.17520 -104.92005 15301 ft 342 kts 158°
2026-05-08 06:35 40.15348 -104.90774 15066 ft 339 kts 160°
2026-05-08 06:35 40.13183 -104.89560 14848 ft 339 kts 160°
2026-05-08 06:36 40.11019 -104.88346 14617 ft 338 kts 160°
2026-05-08 06:36 40.08860 -104.87131 14404 ft 337 kts 159°
2026-05-08 06:36 40.06715 -104.85918 14251 ft 336 kts 159°
2026-05-08 06:36 40.04569 -104.84705 14049 ft 335 kts 159°
2026-05-08 06:37 40.02435 -104.83494 13849 ft 334 kts 159°
2026-05-08 06:37 40.00306 -104.82277 13629 ft 333 kts 159°
2026-05-08 06:37 39.98176 -104.81134 13404 ft 329 kts 166°
2026-05-08 06:37 39.95957 -104.80529 13181 ft 323 kts 179°
2026-05-08 06:38 39.93734 -104.80496 12950 ft 319 kts 185°
2026-05-08 06:38 39.91521 -104.80565 12708 ft 317 kts 185°
2026-05-08 06:38 39.89322 -104.80629 12463 ft 314 kts 185°
2026-05-08 06:38 39.87154 -104.80686 12209 ft 309 kts 185°
2026-05-08 06:39 39.85021 -104.80746 11953 ft 304 kts 185°
2026-05-08 06:39 39.82922 -104.80806 11699 ft 300 kts 185°
2026-05-08 06:39 39.80852 -104.80851 11428 ft 295 kts 184°
2026-05-08 06:39 39.78816 -104.80883 11196 ft 290 kts 184°
2026-05-08 06:40 39.76811 -104.80908 10956 ft 286 kts 184°
2026-05-08 06:40 39.74836 -104.80926 10716 ft 281 kts 184°
2026-05-08 06:40 39.72896 -104.80942 10477 ft 277 kts 184°
2026-05-08 06:40 39.70987 -104.80956 10238 ft 272 kts 184°
2026-05-08 06:41 39.69108 -104.80970 10004 ft 267 kts 184°
2026-05-08 06:41 39.67268 -104.80983 9751 ft 262 kts 184°
2026-05-08 06:41 39.65477 -104.80680 9499 ft 261 kts 160°
2026-05-08 06:41 39.64009 -104.79346 9243 ft 259 kts 129°
2026-05-08 06:42 39.63241 -104.77274 8991 ft 256 kts 98°
2026-05-08 06:42 39.63136 -104.74981 8742 ft 254 kts 89°
2026-05-08 06:42 39.63176 -104.72693 8491 ft 253 kts 87°
2026-05-08 06:42 39.63241 -104.70426 8231 ft 250 kts 83°
2026-05-08 06:43 39.63793 -104.68342 8047 ft 244 kts 51°
2026-05-08 06:43 39.65044 -104.66906 8010 ft 241 kts 27°
2026-05-08 06:43 39.66613 -104.66258 8017 ft 233 kts
2026-05-08 06:43 39.68171 -104.66218 8031 ft 215 kts 358°
2026-05-08 06:44 39.69643 -104.66209 7963 ft 208 kts 358°
2026-05-08 06:44 39.71071 -104.66194 7761 ft 201 kts 358°
2026-05-08 06:44 39.72439 -104.66178 7522 ft 193 kts 359°
2026-05-08 06:44 39.73726 -104.66162 7304 ft 176 kts 359°
2026-05-08 06:45 39.74905 -104.66148 7080 ft 163 kts 359°
2026-05-08 06:45 39.76021 -104.66135 6869 ft 159 kts 360°
2026-05-08 06:45 39.77102 -104.66123 6708 ft 157 kts 360°
2026-05-08 06:45 39.78202 -104.66110 6518 ft 156 kts
2026-05-08 06:46 39.79270 -104.66102 6268 ft 155 kts
2026-05-08 06:46 39.80338 -104.66098 6021 ft 152 kts
2026-05-08 06:46 39.81385 -104.66080 5751 ft 147 kts
2026-05-08 06:46 39.82415 -104.66058 5513 ft 148 kts
2026-05-08 06:47 39.83422 -104.66052 5368 ft 136 kts
2026-05-08 06:47 39.84182 -104.66036 5365 ft 70 kts
2026-05-08 06:47 39.84490 -104.66034 5366 ft 36 kts
2026-05-08 06:47 39.84733 -104.66045 5365 ft 33 kts 346°
2026-05-08 06:48 39.84911 -104.66158 5363 ft 16 kts 330°
2026-05-08 06:48 39.84942 -104.66180 5363 ft 0 kts 332°
2026-05-08 06:49 39.84959 -104.66191 5365 ft 7 kts 334°
2026-05-08 06:49 39.85024 -104.66227 5365 ft 17 kts 343°
2026-05-08 06:49 39.85169 -104.66238 5365 ft 21 kts
2026-05-08 06:49 39.85292 -104.66298 5366 ft 20 kts 286°
2026-05-08 06:50 39.85294 -104.66481 5366 ft 20 kts 269°
2026-05-08 06:50 39.85272 -104.66661 5366 ft 20 kts 270°
2026-05-08 06:50 39.85274 -104.66841 5365 ft 20 kts 271°
2026-05-08 06:50 39.85273 -104.66976 5366 ft 9 kts 269°
2026-05-08 06:51 39.85301 -104.67013 5363 ft 7 kts 358°
2026-05-08 06:51 39.85340 -104.67012 5364 ft 2 kts
2026-05-08 06:51 39.85343 -104.67011 5364 ft 0 kts
2026-05-08 06:52 39.85343 -104.67012 5364 ft 0 kts
2026-05-08 06:53 39.85343 -104.67011 5364 ft 0 kts
2026-05-08 06:53 39.85343 -104.67012 5364 ft 0 kts